Track STARLINK-55 now! 10-day predictions STARLINK-55 is classified as:
1 44268U 19029AK 21021.49079139 .00070999 00000-0 45933-3 0 9994 2 44268 52.9939 174.6237 0005130 323.3500 36.7167 15.75425572 92923